Location: Santaluz Observatory
(32.9930°N, 117.1510°W)
Time: 18:37:06
(UTC-07:00)

Hubble Space Telescope - Visible Passes

Search period start: 28 September 2016 00:00
Search period end: 08 October 2016 00:00
Orbit: 539 x 542 km, 28.5° (Epoch: 28 September)

Date Brightness Start Highest point End Pass type
(mag) Time Alt. Az. Time Alt. Az. Time Alt. Az.
28 Sep 2.9 05:34:22 12° SSW 05:34:44 12° SSW 05:36:19 10° S visible
03 Oct 3.0 20:08:36 10° SSW 20:09:54 15° S 20:09:54 15° S visible
04 Oct 2.5 19:58:18 10° SSW 20:00:53 20° S 20:00:53 20° S visible
05 Oct 2.1 19:48:07 10° SW 19:51:30 24° SSE 19:51:47 24° SSE visible
06 Oct 2.0 19:38:02 10° SW 19:41:37 28° SSE 19:42:37 25° SE visible
07 Oct 1.8 19:28:01 10° SW 19:31:44 32° SSE 19:33:25 23° SE visible
07 Oct 3.9 21:08:44 10° WSW 21:08:48 10° WSW 21:08:48 10° WSW visible
